Regional Weather Roundup
Issued by NWS

Home | Current Version | Previous Version | Text Only | Print | Product List | Glossary On
Versions: 1 2 3 4 5 6 7 8 9 10 11 12 13 14 15 16 17 18 19 20 21 22 23 24 25 26 27 28
000
ASUS45 KBOI 231310
RWRID

IDAHO REGIONAL WEATHER ROUNDUP
NATIONAL WEATHER SERVICE BOISE ID
700 AM MDT FRI JUN 23 2017

NOTE: "FAIR" INDICATES FEW OR NO CLOUDS BELOW 12000 FEET
WITH NO SIGNIFICANT WEATHER AND/OR OBSTRUCTIONS TO VISIBILITY

IDZ012-014-231400-
SOUTHWEST IDAHO


CITY           SKY/WX    TMP DP  RH WIND       PRES   REMARKS
BOISE          CLEAR     52  36  54 CALM      30.19R
CALDWELL       PTCLDY    54  39  57 W8        30.18R
MOUNTAIN HOME  CLEAR     55  35  46 NW9       30.18R
$$

IDZ016-017-231400-
SOUTHCENTRAL IDAHO


CITY           SKY/WX    TMP DP  RH WIND       PRES   REMARKS
BURLEY         CLEAR     49  41  74 CALM      30.20R
JEROME         CLEAR     50  35  56 E3        30.20R
TWIN FALLS     CLEAR     54  30  40 SW7       30.20R
$$

IDZ019>023-231400-
SOUTHEAST IDAHO


CITY           SKY/WX    TMP DP  RH WIND       PRES   REMARKS
IDAHO FALLS    SUNNY     43  37  79 N9        30.24R
POCATELLO      SUNNY     47  39  74 N6        30.23R
REXBURG        SUNNY     45  35  68 NE6       30.25R
$$

IDZ006-010-011-018-031-032-231400-
CENTRAL IDAHO MOUNTAINS


CITY           SKY/WX    TMP DP  RH WIND       PRES   REMARKS
MCCALL         CLEAR     38  29  70 CALM      30.26R
HAILEY         CLEAR     45  34  65 NW12      30.28S
STANLEY          N/A     33  28  81 CALM      30.34R
SALMON         SUNNY     41  36  81 CALM      30.29S
CHALLIS        CLEAR     46  27  47 SE3       30.30R
$$

IDZ002-004-006-007-026-231400-
NORTHERN IDAHO


CITY           SKY/WX    TMP DP  RH WIND       PRES   REMARKS
LEWISTON       CLEAR     51  39  63 CALM      30.24R
LOWELL           N/A     45  41  86 NW3       30.32R
COEUR D`ALENE  CLEAR     46  41  82 CALM      30.25S
MULLAN PASS    CLEAR     48  28  46 VRB3      30.32R
$$




USA.gov is the U.S. government's official web portal to all federal, state and local government web resources and services.